Alamosa, CO

4:35 PM MST on February 14, 2016 (GMT -0700)
San Luis Valley Regional / Bergman Field

Weather History for KALS - August, 2012

Change the Weather History Date:

Sunday, August 12, 2012

  Actual Average Record
Temperature  
Mean Temperature 62 °F 63 °F  
Max Temperature 81 °F 80 °F 89 °F (1996)
Min Temperature 43 °F 47 °F 37 °F (1974)
Degree Days  
Heating Degree Days 3 2  
Month to date heating degree days 9 21  
Since 1 June heating degree days 82 234  
Since 1 July heating degree days 23 66  
Cooling Degree Days 0 1  
Month to date cooling degree days 8 12  
Year to date cooling degree days 111 50  
Since 1 June cooling degree days 111 50  
Growing Degree Days 12 (Base 50)    
Moisture  
Dew Point 43 °F    
Average Humidity 54    
Maximum Humidity 83    
Minimum Humidity 24    
Precipitation  
Precipitation 0.00 in 0.04 in 0.38 in (2005)
Month to date precipitation 0.04 0.48  
Year to date precipitation 2.76 4.16  
Snow  
Snow 0.00 in 0.00 in 0.00 in (2002)
Month to date snowfall 0.0 0.0  
Since 1 June snowfall 0.0 0.0  
Since 1 July snowfall 0.0 0.0  
Snow Depth 0.00 in    
Sea Level Pressure  
Sea Level Pressure 30.11 in    
Wind  
Wind Speed 8 mph (SSW)    
Max Wind Speed 30 mph    
Max Gust Speed 36 mph    
Visibility 10 miles    
Events      
T = Trace of Precipitation, MM = Missing Value Source: NWS Daily Summary

Daily Weather History Graph

Daily Weather History Graph

Search for Another Location

Airport or City:

Trip Planner

Search our weather history database for the weather conditions in past years. The results will help you decide how hot, cold, wet, or windy it might be!

Date:

Astronomy

Aug. 12, 2012 Rise Set
Actual Time 6:17 AM MDT 7:58 PM MDT
Civil Twilight 5:49 AM MDT 8:26 PM MDT
Nautical Twilight 5:15 AM MDT 9:00 PM MDT
Astronomical Twilight 4:39 AM MDT 9:36 PM MDT
Moon 1:35 AM MDT (8/12) 4:23 PM MDT (8/12)
Length of Visible Light 14h 37m
Length of Day
13h 41m
Waning Crescent, 23% of the Moon is Illuminated
Aug 12
Waning Crescent
Aug 17
New
Aug 24
First Quarter
Aug 31
Full
Sep 8
Last Quarter

Hourly Weather History & Observations

Time (MDT) Temp. Windchill Dew Point Humidity Pressure Visibility Wind Dir Wind Speed Gust Speed Precip Events Conditions
12:52 AM 55.0 °F - 39.0 °F 55% 30.05 in 10.0 mi SSE 4.6 mph - N/A   Scattered Clouds
1:52 AM 53.1 °F - 39.9 °F 61% 30.04 in 10.0 mi Calm Calm - N/A   Clear
2:52 AM 48.9 °F - 41.0 °F 74% 30.07 in 10.0 mi West 8.1 mph - N/A   Clear
3:52 AM 48.9 °F - 43.0 °F 80% 30.10 in 10.0 mi WSW 6.9 mph - N/A   Clear
4:52 AM 50.0 °F - 43.0 °F 77% 30.09 in 10.0 mi Calm Calm - N/A   Clear
5:52 AM 45.0 °F 43.5 °F 39.9 °F 82% 30.12 in 10.0 mi SSW 3.5 mph - N/A   Clear
6:52 AM 44.1 °F - 39.0 °F 82% 30.14 in 10.0 mi Calm Calm - N/A   Clear
7:52 AM 54.0 °F - 43.0 °F 66% 30.13 in 10.0 mi North 4.6 mph - N/A   Clear
8:52 AM 61.0 °F - 45.0 °F 56% 30.13 in 10.0 mi Calm Calm - N/A   Clear
9:52 AM 68.0 °F - 44.1 °F 42% 30.13 in 10.0 mi Calm Calm - N/A   Clear
10:52 AM 71.1 °F - 43.0 °F 36% 30.11 in 10.0 mi Calm Calm - N/A   Clear
11:52 AM 78.1 °F - 41.0 °F 27% 30.09 in 10.0 mi North 4.6 mph - N/A   Clear
12:52 PM 77.0 °F - 37.9 °F 24% 30.08 in 10.0 mi Calm Calm - N/A   Clear
1:52 PM 73.9 °F - 41.0 °F 30% 30.09 in 10.0 mi WSW 17.3 mph 25.3 mph N/A   Clear
2:52 PM 75.9 °F - 37.9 °F 25% 30.08 in 10.0 mi SW 11.5 mph - N/A   Clear
3:52 PM 77.0 °F - 39.0 °F 25% 30.05 in 10.0 mi WSW 13.8 mph 19.6 mph N/A   Mostly Cloudy
4:52 PM 75.0 °F - 44.1 °F 33% 30.06 in 10.0 mi SW 26.5 mph 32.2 mph N/A   Clear
5:52 PM 70.0 °F - 46.9 °F 44% 30.12 in 10.0 mi SSW 26.5 mph 33.4 mph N/A   Clear
6:52 PM 66.9 °F - 46.9 °F 49% 30.12 in 10.0 mi South 21.9 mph 26.5 mph N/A   Clear
7:52 PM 64.0 °F - 45.0 °F 50% 30.13 in 10.0 mi SSE 11.5 mph - N/A   Clear
8:52 PM 60.1 °F - 45.0 °F 57% 30.14 in 10.0 mi East 10.4 mph - N/A   Partly Cloudy
9:52 PM 57.0 °F - 44.1 °F 62% 30.15 in 10.0 mi ESE 6.9 mph - N/A   Clear
10:52 PM 59.0 °F - 45.0 °F 60% 30.15 in 10.0 mi SSE 11.5 mph - N/A   Clear
11:52 PM 57.9 °F - 45.0 °F 62% 30.14 in 10.0 mi ESE 4.6 mph - N/A   Scattered Clouds